This is the latest recevied weather packets stored in our database for station/object SP5IZJ-2. If no packets are shown the sender has not sent any weather packets the latest 10 day(s).
| Time | Temp. | Humidity | Pressure | Rain* | Wind** | Luminosity | Snow |
|---|---|---|---|---|---|---|---|
| 1777237768 | 0° C | 44% | 1016.5 hPa | 0 mm | - | - | - |
| 1777237348 | 0.56° C | 43% | 1016.5 hPa | 0 mm | - | - | - |
| 1777236928 | 0.56° C | 43% | 1016.6 hPa | 0 mm | - | - | - |
| 1777236508 | 0.56° C | 42% | 1016.6 hPa | 0 mm | - | - | - |
| 1777236088 | 1.11° C | 42% | 1016.5 hPa | 0 mm | - | - | - |
| 1777235668 | 1.11° C | 42% | 1016.6 hPa | 0 mm | - | - | - |
| 1777235249 | 1.67° C | 42% | 1016.5 hPa | 0 mm | - | - | - |
| 1777234829 | 1.67° C | 42% | 1016.5 hPa | 0 mm | - | - | - |
| 1777233993 | 2.78° C | 40% | 1016.6 hPa | 0 mm | - | - | - |
| 1777233569 | 2.78° C | 40% | 1016.5 hPa | 0 mm | - | - | - |
| 1777233150 | 2.78° C | 40% | 1016.5 hPa | 0 mm | - | - | - |
| 1777232730 | 2.78° C | 39% | 1016.4 hPa | 0 mm | - | - | - |
| 1777232333 | 3.33° C | 39% | 1016.3 hPa | 0 mm | - | - | - |
| 1777231905 | 3.33° C | - | 1001.6 hPa | 0 mm | - | - | - |
| 1777231898 | 3.33° C | 38% | 1016.2 hPa | 0 mm | - | - | - |
| 1777231470 | 3.33° C | 38% | 1016.1 hPa | 0 mm | - | - | - |
| 1777231050 | 3.33° C | 37% | 1016.1 hPa | 0 mm | - | - | - |
| 1777230631 | 3.89° C | 37% | 1015.9 hPa | 0 mm | - | - | - |
| 1777230211 | 4.44° C | 37% | 1015.8 hPa | 0 mm | - | - | - |
| 1777229791 | 4.44° C | 36% | 1015.9 hPa | 0 mm | - | - | - |
| 1777229375 | 4.44° C | 37% | 1015.9 hPa | 0 mm | - | - | - |
| 1777228951 | 5° C | 37% | 1015.7 hPa | 0 mm | - | - | - |
| 1777228573 | 5° C | 36% | 1015.8 hPa | 0 mm | - | - | - |
| 1777228112 | 5.56° C | 35% | 1015.6 hPa | 0 mm | - | - | - |
| 1777227692 | 5.56° C | 35% | 1015.5 hPa | 0 mm | - | - | - |
* Rain latest hour (hover to see other rain measurements)
** Current wind speed in m/s (hover to see current wind gust speed)